Location: Lachaise
(45.8833°N, 1.8500°E)
Time: 01:15:03
(UTC+00:00)

Daily predictions for brighter satellites

Satellite Brightness Start Highest point End
(mag) Time Altitude Azimuth Time Altitude Azimuth Time Altitude Azimuth
STARLINK-1240 3.9 00:00:27 10° WNW 00:03:59 51° WSW 00:03:59 51° WSW
Cosmos 1763 Rocket 3.4 00:05:57 50° S 00:07:14 75° ESE 00:12:19 10° NNE
Cosmos 1709 Rocket 4.4 00:05:05 33° SSE 00:07:32 51° E 00:13:30 10° NNE
Cosmos 2227 Rocket 2.3 00:03:00 10° NNW 00:08:36 60° WSW 00:10:10 44° SSW
Landsat 4 3.7 00:05:26 10° N 00:09:08 67° WNW 00:09:24 64° WSW
STARLINK-1216 4.1 00:05:28 10° WNW 00:08:47 45° WSW 00:08:47 45° WSW
NOSS 7 (E) 4.4 00:09:44 75° N 00:09:44 75° N 00:12:40 10° NE
Cosmos 2084 Rocket 4.1 00:08:06 10° NNW 00:12:30 55° NE 00:14:58 25° ESE
Cosmos 1356 Rocket 3.8 00:09:23 10° NNW 00:13:29 49° W 00:13:55 46° WSW
STARLINK-1237 4.3 00:10:28 10° WNW 00:13:34 40° WSW 00:13:34 40° WSW
Cosmos 1758 Rocket 4.1 00:15:28 41° SE 00:16:20 47° E 00:20:36 10° NNE
SL-16 R/B 4.2 00:11:28 10° ESE 00:16:31 28° ENE 00:21:38 10° N
STARLINK-75 4.2 00:18:02 33° ENE 00:18:02 33° ENE 00:20:02 10° ENE
STARLINK-1202 4.5 00:15:29 10° WNW 00:18:21 35° W 00:18:21 35° W
STARLINK-1283 3.9 00:20:03 49° ESE 00:20:03 49° ESE 00:23:41 10° ENE
STARLINK-80 4.1 00:21:06 41° ESE 00:21:06 41° ESE 00:24:03 10° ENE
STARLINK-1279 4.5 00:22:32 27° ENE 00:22:32 27° ENE 00:24:12 10° ENE
Nadezhda 1 Rocket 4.1 00:16:49 10° NNW 00:23:00 66° W 00:25:28 38° SSW
CZ-4 R/B 3.7 00:18:55 10° NNE 00:23:40 86° ESE 00:24:50 52° S
Cosmos 1300 4.3 00:21:03 10° NW 00:24:06 23° W 00:24:09 23° W
SL-16 R/B 4.2 00:22:44 12° ESE 00:25:00 15° E 00:28:08 10° ENE
STARLINK-22 4.2 00:26:16 33° E 00:26:16 33° E 00:28:16 10° ENE
Cosmos 2208 Rocket 4.3 00:23:37 41° SSE 00:25:08 56° ESE 00:30:23 10° NNE
STARLINK-1297 4.1 00:26:32 38° E 00:26:32 38° E 00:29:09 10° ENE
STARLINK 1040 4.4 00:26:21 30° N 00:26:21 30° N 00:28:09 10° NE
STARLINK-1311 4.4 00:28:28 27° ENE 00:28:28 27° ENE 00:30:00 10° ENE
Cosmos 2285 Rocket 4.0 00:22:14 10° NNW 00:28:39 84° ENE 00:31:55 31° SSE
USA 81 4.1 00:30:16 42° SSE 00:32:04 76° E 00:37:21 10° N
CZ-2D R/B 3.9 00:28:36 10° NE 00:32:32 21° E 00:35:02 15° SE
Cosmos-2242 3.3 00:29:01 10° N 00:33:14 60° ENE 00:34:23 43° SE
Meteor 2-10 Rocket 3.3 00:28:35 10° NNW 00:33:44 81° W 00:35:15 46° S
USA 215 3.2 00:28:06 10° SE 00:34:37 81° SW 00:41:13 10° NW
Cosmos 1953 Rocket 4.4 00:33:32 33° SE 00:34:44 41° E 00:38:52 10° NNE
Cosmos 1626 Rocket 4.4 00:34:39 34° WSW 00:35:40 39° WNW 00:39:48 10° N
STARLINK-42 3.4 00:36:26 55° NE 00:36:26 55° NE 00:38:58 10° ENE
BREEZE-M R/B 3.7 00:29:07 10° W 00:35:57 61° NNW 00:39:25 10° ENE
Meteor 1-21 Rocket 4.2 00:34:27 41° SSW 00:36:35 82° W 00:42:25 10° N
STARLINK-34 4.3 00:40:02 29° E 00:40:02 29° E 00:41:48 10° ENE
STARLINK-41 3.4 00:40:10 53° NE 00:40:10 53° NE 00:42:38 10° ENE
GP-B 4.4 00:37:06 10° NNE 00:41:08 33° E 00:42:58 23° SE
STARLINK-1272 3.3 00:42:02 62° ESE 00:42:02 62° ESE 00:45:13 10° ENE
STARLINK-62 4.2 00:43:45 32° E 00:43:45 32° E 00:45:39 10° ENE
Cosmos 540 Rocket 3.4 00:41:07 45° S 00:42:43 77° ESE 00:47:51 10° NNE
SeaSat 1 4.4 00:39:30 10° N 00:43:21 23° NW 00:47:11 10° W
STARLINK-1307 3.2 00:46:48 72° SSE 00:46:50 72° SSE 00:50:33 10° ENE
Helios 1B rocket 2.8 00:45:23 10° N 00:49:27 55° WNW 00:50:24 43° WSW
STARLINK-1290 3.1 00:50:11 74° S 00:50:21 76° SE 00:54:04 10° ENE
Cosmos 1980 Rocket 2.1 00:51:50 39° SSW 00:54:02 83° ESE 00:59:44 10° NNE
STARLINK-1317 3.3 00:56:33 56° WSW 00:57:19 89° SE 01:01:15 10° ENE
Uosat 12 SS-18 rocket 4.3 00:53:17 10° NW 00:57:27 50° WSW 00:58:02 47° SSW
Meteor 1-29 3.0 00:54:40 10° N 00:58:00 61° WNW 00:58:11 59° W
Cosmos 1455 2.7 00:56:21 10° NNW 00:59:54 42° W 01:00:05 41° WSW
Cosmos 1328 3.7 00:59:35 56° SSW 01:00:21 77° W 01:04:22 10° N
STARLINK-55 3.7 01:00:33 41° WNW 01:01:15 50° NNW 01:04:24 10° NE
STARLINK-1274 3.1 01:00:56 67° WSW 01:01:21 86° NW 01:04:55 10° ENE
Cosmos 2369 4.3 01:02:04 26° WSW 01:04:59 50° WNW 01:10:31 10° NNE
STARLINK-1291 3.3 01:04:15 53° WSW 01:05:03 83° NNW 01:08:48 10° ENE
Cosmos 1937 Rocket 4.2 01:01:09 10° NW 01:05:58 37° WSW 01:07:10 33° SW
Meteor 1-11 4.3 01:03:54 33° S 01:06:29 71° E 01:12:03 10° NNE
Cosmos 1703 3.5 01:05:53 48° SW 01:06:38 58° W 01:10:31 10° N
Lacrosse 4 Rocket 2.8 01:04:23 10° NW 01:07:20 23° W 01:07:20 23° W
STARLINK-1264 3.3 01:07:26 48° WSW 01:08:22 79° NNW 01:12:07 10° ENE
Cosmos 1825 Rocket 3.8 01:08:39 41° SW 01:09:49 56° WNW 01:14:08 10° N
ADEOS II 4.2 01:06:54 10° NE 01:10:33 19° E 01:14:10 10° SE
Cosmos 2263 Rocket 2.5 01:05:11 10° NNW 01:10:46 65° ENE 01:15:58 12° SE
STARLINK-1267 3.4 01:10:40 44° WSW 01:11:44 75° NNW 01:15:28 10° ENE
NOSS 2-1 (C) 4.1 01:12:05 30° SE 01:12:16 30° ESE 01:15:22 10° ENE
Timation 1 Rocket 4.2 01:06:19 10° NNW 01:12:19 83° WSW 01:16:19 22° SSE
STARLINK-28 4.1 01:11:33 27° WNW 01:12:51 41° NNW 01:15:55 10° NE
SL-4 R/B 2.5 01:09:02 10° WNW 01:13:54 74° NNE 01:18:36 10° ESE
Cosmos 2297 Rocket 3.9 01:10:56 10° WNW 01:14:07 16° W 01:14:46 15° WSW
STARLINK-64 3.4 01:14:12 52° SSE 01:14:19 52° SE 01:17:49 10° ENE
UNK 4.2 01:11:41 21° SE 01:14:34 57° ENE 01:19:04 10° N
USA 229 DEB 4.1 01:08:54 10° NW 01:16:10 74° NE 01:23:47 10° SE
USA 229 4.1 01:09:00 10° NW 01:16:16 73° NE 01:23:53 10° SE
STARLINK-1287 4.4 01:16:13 34° SSE 01:16:38 35° SE 01:20:25 10° ENE
NOSS 3-1 (C) 4.2 01:09:32 10° NW 01:17:03 81° NE 01:25:43 10° SE
NOSS 2-1 (D) 3.8 01:16:50 33° SE 01:17:09 34° ESE 01:20:21 10° NE
STARLINK-1207 3.5 01:17:09 36° W 01:18:30 68° NNW 01:22:16 10° NE
Cosmos 372 Rocket 4.0 01:13:32 10° NNW 01:18:37 62° WSW 01:20:47 34° S
NPP 4.3 01:14:37 10° NNE 01:19:50 47° E 01:22:54 23° SSE
Cosmos 2184 Rocket 4.1 01:16:26 27° S 01:19:58 71° E 01:26:07 10° NNE
CZ-4C R/B 3.5 01:16:43 12° W 01:21:09 35° NW 01:26:50 10° NNE
STARLINK-1266 3.6 01:20:25 33° W 01:21:55 65° NNW 01:25:39 10° NE
BREEZE-M DEB (TANK) 2.6 01:23:14 40° ENE 01:23:14 40° ENE 01:24:55 10° ENE
STARLINK-33 4.1 01:21:41 24° WNW 01:23:03 38° NNW 01:26:01 10° NE
STARLINK-1299 4.0 01:24:05 40° S 01:25:02 48° SE 01:29:09 10° ENE
NOSS 3-1 (A) 4.5 01:17:46 10° NW 01:25:10 66° NE 01:33:42 10° SE
STARLINK-1284 3.7 01:23:40 30° W 01:25:19 62° NNW 01:29:03 10° NE
STARLINK-26 4.3 01:24:27 19° W 01:26:31 40° NNW 01:29:47 10° NE
STARLINK-1302 4.2 01:25:46 37° SSE 01:26:31 41° SE 01:30:27 10° ENE
BREEZE-M DEB (TANK) 2.7 01:24:44 10° WNW 01:27:14 35° N 01:29:28 10° ENE
Alouette 2 Rocket 4.5 01:23:33 10° NNW 01:27:28 28° W 01:28:04 27° WSW
STARLINK-1258 3.8 01:26:59 28° W 01:28:46 59° NNW 01:32:29 10° NE
Cosmos 1869 4.1 01:26:48 10° N 01:30:32 45° ENE 01:33:00 19° SE
Cosmos 2150 Rocket 3.9 01:26:09 10° NNW 01:31:16 65° WSW 01:33:54 28° S
STARLINK-1273 4.1 01:30:32 38° S 01:31:28 45° SE 01:35:26 10° ENE
STARLINK-1292 3.9 01:30:17 25° W 01:32:13 56° NNW 01:35:55 10° NE
Cosmos 2322 Rocket 2.9 01:29:42 23° SSE 01:32:49 44° ESE 01:38:07 10° NE
STARLINK-1288 4.0 01:35:19 38° S 01:36:25 49° SE 01:40:26 10° ENE
STARLINK-61 4.2 01:35:51 33° SSE 01:36:35 36° SE 01:40:12 10° ENE
STARLINK-1268 4.0 01:36:29 24° W 01:37:56 41° NNW 01:40:54 10° NE
STARLINK-1289 4.0 01:36:52 21° W 01:39:05 52° NNW 01:42:46 10° NE
Cosmos 1697 Rocket 4.2 01:36:19 13° WSW 01:40:24 28° NW 01:45:16 10° N
STARLINK-1301 4.2 01:38:35 19° W 01:41:04 50° NNW 01:44:51 10° NE
STARLINK-1308 3.8 01:40:08 37° SSW 01:41:26 54° SE 01:45:29 10° ENE
Resurs 1-4 Rocket 2.1 01:36:29 10° NNE 01:41:50 85° ESE 01:44:54 26° SSW
STARLINK-1303 4.1 01:40:12 20° W 01:42:35 50° NNW 01:46:15 10° NE
STARLINK-1316 4.1 01:41:30 20° W 01:43:13 38° NNW 01:46:11 10° NE
Cosmos 1400 Rocket 3.5 01:39:45 10° NNW 01:43:38 40° W 01:44:45 32° SW
STARLINK-1257 4.1 01:42:21 20° W 01:44:07 38° NNW 01:47:05 10° NE
Cosmos 1125 Rocket 3.4 01:39:42 10° NNW 01:44:56 79° WSW 01:48:54 18° SSE
STARLINK-1256 4.2 01:43:18 19° W 01:45:05 37° NNW 01:48:02 10° NE
STARLINK-58 3.7 01:44:00 26° W 01:45:29 48° NNW 01:48:35 10° NE
STARLINK-1213 4.2 01:44:08 19° W 01:45:58 37° NNW 01:48:55 10° NE
STARLINK-1312 4.2 01:43:33 18° W 01:46:05 48° NNW 01:49:46 10° NE
STARLINK-1263 4.2 01:45:01 18° W 01:46:52 37° NNW 01:49:48 10° NE
Meteor 2-17 Rocket 4.4 01:42:53 23° S 01:46:53 85° E 01:53:02 10° N
STARLINK-52 3.8 01:44:34 10° NW 01:47:43 52° NNE 01:50:52 10° ESE
STARLINK-1259 4.2 01:45:54 18° W 01:47:48 36° NNW 01:50:45 10° NE
STARLINK-1265 4.2 01:46:15 18° W 01:48:12 36° NNW 01:51:11 10° NE
STARLINK-1285 4.3 01:46:45 17° W 01:48:41 36° NNW 01:51:37 10° NE
STARLINK-1296 4.3 01:48:30 17° W 01:50:30 35° NNW 01:53:26 10° NE
STARLINK-1304 3.7 01:49:41 33° SSW 01:51:21 63° SE 01:55:27 10° ENE
STARLINK-1260 4.3 01:49:21 16° W 01:51:24 35° NNW 01:54:20 10° NE
Cosmos 1408 4.4 01:49:31 13° SE 01:52:12 27° E 01:55:21 10° NNE
STARLINK-1318 4.3 01:50:13 16° W 01:52:19 35° NNW 01:55:14 10° NE
STARLINK-1275 4.4 01:51:06 15° W 01:53:14 34° NNW 01:56:09 10° NE
STARLINK-1309 4.4 01:51:57 15° W 01:54:07 34° NNW 01:57:01 10° NE
Cosmos 2154 Rocket 4.0 01:49:51 21° S 01:54:17 83° E 02:00:32 10° N
STARLINK-1282 4.4 01:52:48 15° W 01:55:01 33° NNW 01:57:55 10° NE
STARLINK-48 3.7 01:53:48 24° WSW 01:56:03 68° NNW 01:59:56 10° NE
GEOS 3 Rocket 3.7 01:52:02 10° SE 01:57:14 81° NE 02:02:33 10° NW
STARLINK-1278 3.6 01:55:21 28° SW 01:57:30 79° SSE 02:01:46 10° ENE
STARLINK-1298 4.4 01:55:23 14° W 01:57:42 33° NNW 02:00:35 10° NE
Meteor 1-27 4.4 01:52:27 10° NNW 01:57:53 54° W 02:01:18 22° SSW
STARLINK-1293 4.5 01:56:17 13° W 01:58:38 32° NNW 02:01:31 10° NE
Cosmos 1825 4.3 01:55:52 10° SE 01:58:50 22° E 02:01:49 10° NE
STARLINK-1280 3.6 01:57:07 28° SW 01:59:20 81° SSE 02:03:37 10° ENE
SL-16 R/B 2.6 01:55:29 20° S 01:59:45 58° WSW 02:05:52 10° NNW
Iridium 2 3.6 01:57:34 10° N 02:01:20 67° W 02:03:12 28° SSW
SL-08 R/B 4.5 01:57:24 10° SE 02:01:43 41° ENE 02:06:04 10° N
Cosmos 1241 Rocket 4.5 01:57:57 23° SW 02:02:01 81° NW 02:08:19 10° NNE
STARLINK-1297 4.5 02:00:20 12° W 02:03:23 39° NNW 02:06:48 10° NE
Meteor 2-2 Rocket 4.3 01:57:19 10° NNW 02:03:23 82° W 02:08:42 13° S
Cosmos 1844 Rocket 4.0 01:59:53 10° NNW 02:05:11 41° NE 02:10:26 10° SE
NOSS 2-1 (E) 2.9 02:04:58 31° SW 02:06:29 79° NW 02:10:10 10° NE
STARLINK-1286 3.6 02:05:37 25° SW 02:07:59 84° SSE 02:12:10 10° ENE
CRYOSAT 2 4.4 02:03:21 10° N 02:08:15 73° W 02:11:31 21° SSW
SL-16 R/B 2.2 02:04:36 23° SSW 02:08:18 85° WNW 02:14:02 10° NNE
STARLINK-1281 3.5 02:08:48 24° SW 02:11:13 85° SSE 02:15:23 10° ENE
IRIDIUM 104 4.4 02:07:39 16° S 02:11:48 83° E 02:17:03 10° N
CZ-2D R/B 2.4 02:07:50 10° N 02:12:56 55° WNW 02:16:21 20° SW
Cosmos 2221 2.8 02:09:21 10° NNW 02:13:36 53° W 02:16:17 21° SSW
STARLINK-1029 4.1 02:11:18 15° W 02:13:38 39° NNW 02:16:40 10° NE
STARLINK-34 4.4 02:11:58 12° W 02:14:33 32° NNW 02:17:22 10° NE
STARLINK-37 4.4 02:13:33 22° S 02:15:03 31° SE 02:18:18 10° ENE
STARLINK-60 3.3 02:12:36 10° WNW 02:15:38 41° SW 02:18:38 10° SSE
STARLINK-1310 3.6 02:13:35 22° WSW 02:16:12 89° NNW 02:20:22 10° ENE
STARLINK-36 4.4 02:14:56 21° S 02:16:29 30° SE 02:19:42 10° ENE
FALCON 9 DEB 3.7 02:13:37 10° NW 02:17:02 59° NNE 02:20:28 10° ESE
USA 215 4.2 02:15:22 18° SSW 02:18:16 24° SW 02:23:23 10° WNW
GP-B 4.5 02:14:39 10° NNW 02:18:18 25° WNW 02:20:26 18° WSW
STARLINK-62 4.5 02:15:41 10° W 02:18:23 30° NNW 02:21:09 10° NE
Nadezhda 3 Rocket 4.1 02:12:44 10° NNW 02:18:59 65° W 02:24:39 13° S
Cosmos 1315 Rocket 3.3 02:15:35 10° NNW 02:19:18 42° W 02:21:25 22° SSW
STARLINK-63 4.3 02:18:10 22° S 02:19:49 34° SE 02:23:07 10° ENE
Cosmos 1842 Rocket 4.3 02:16:41 10° NNW 02:20:48 37° W 02:23:13 21° SW
IRIDIUM 114 4.3 02:16:46 16° S 02:20:56 83° W 02:26:12 10° N
STARLINK-1319 3.6 02:18:21 20° WSW 02:21:10 84° NNW 02:25:20 10° ENE
STARLINK-35 4.3 02:19:32 21° S 02:21:11 32° SE 02:24:25 10° ENE
CBERS-1 4.0 02:17:26 10° NNE 02:22:36 86° WNW 02:26:40 17° SSW
STARLINK-51 4.2 02:21:14 21° S 02:22:58 34° SE 02:26:17 10° ENE
STARLINK-30 4.2 02:22:49 21° S 02:24:38 35° SE 02:27:59 10° ENE
STARLINK-72 4.1 02:24:13 21° SSW 02:26:01 36° SE 02:29:20 10° ENE
STARLINK-1277 3.7 02:23:08 18° WSW 02:26:09 78° NNW 02:30:19 10° ENE
Shenzhou-11 Module 1.9 02:26:47 34° SSW 02:27:13 38° S 02:29:32 10° ESE
STARLINK-59 4.0 02:27:25 21° SSW 02:29:21 40° SE 02:32:43 10° ENE
Cosmos 2058 3.1 02:27:00 20° SSW 02:29:50 59° W 02:34:01 10° N
IRIDIUM 103 4.4 02:25:55 16° SSW 02:30:07 69° W 02:35:21 10° N
Cosmos 2360 Rocket 2.4 02:25:44 15° S 02:30:23 66° ESE 02:36:00 10° NNE
STARLINK-56 4.0 02:29:04 20° SSW 02:31:06 40° SE 02:34:32 10° ENE
STARLINK-1276 3.7 02:27:56 16° WSW 02:31:10 74° NNW 02:35:19 10° ENE
STARLINK-73 4.0 02:30:38 20° SSW 02:32:44 41° SE 02:36:11 10° ENE
STARLINK-38 3.9 02:32:12 20° SSW 02:34:21 43° SE 02:37:49 10° ENE
STARLINK-65 3.9 02:33:46 19° SSW 02:35:59 44° SE 02:39:28 10° ENE
STARLINK-1305 3.8 02:32:42 15° WSW 02:36:07 69° NNW 02:40:16 10° ENE
STARLINK-68 3.8 02:34:23 19° SSW 02:36:40 48° SE 02:40:12 10° ENE
STARLINK-1306 3.9 02:33:14 14° WSW 02:36:49 66° NNW 02:41:00 10° NE
STARLINK-53 3.7 02:35:24 19° SSW 02:37:41 48° SE 02:41:12 10° ENE
Cosmos 1980 Rocket 4.1 02:34:41 10° W 02:38:47 20° NW 02:42:55 10° N
STARLINK-50 3.9 02:37:26 18° SSW 02:39:57 46° SE 02:43:38 10° ENE
CZ-4B R/B 4.2 02:35:22 10° N 02:40:21 44° WNW 02:44:30 14° SW
STARLINK-1262 3.9 02:37:30 13° WSW 02:41:09 65° NNW 02:45:17 10° NE
Cosmos 2333 Rocket 3.6 02:39:04 10° SSE 02:44:03 33° ESE 02:49:05 10° NE
STARLINK-71 3.9 02:41:45 17° SW 02:44:42 54° SE 02:48:38 10° ENE
Meteor 1-28 Rocket 3.4 02:42:24 10° SSE 02:46:08 75° ENE 02:49:52 10° N
STARLINK-1300 4.0 02:42:17 12° WSW 02:46:08 61° NNW 02:50:15 10° NE
Cosmos 2219 Rocket 3.6 02:43:15 10° SSE 02:48:11 33° ESE 02:53:08 10° NE
STARLINK-1026 4.3 02:45:20 15° SSW 02:48:27 44° SE 02:52:24 10° ENE
STARLINK-29 3.2 02:45:25 10° WNW 02:48:28 43° SW 02:51:30 10° SE
STARLINK-1378 4.4 02:44:39 10° NW 02:48:36 53° NNE 02:52:33 10° ESE
Cosmos 2322 4.4 02:43:56 10° S 02:49:26 52° ESE 02:54:59 10° NE
ADEOS II 2.2 02:45:28 10° N 02:50:41 63° WNW 02:55:36 11° SSW
STARLINK-1295 4.1 02:47:03 10° WSW 02:51:06 57° NNW 02:55:12 10° NE
STARLINK-1379 4.3 02:49:09 10° NW 02:53:08 56° NNE 02:57:06 10° ESE
SL-4 R/B 3.0 02:49:10 10° WNW 02:53:23 31° SW 02:57:25 10° SSE
IRS-1D 4.1 02:48:22 10° N 02:53:25 47° WNW 02:58:00 12° SW
STARLINK-1013 4.2 02:50:08 14° SSW 02:53:26 48° SE 02:57:26 10° ENE
Cosmos 2263 Rocket 3.5 02:50:10 10° NW 02:54:07 20° W 02:57:35 12° SW
IDEFIX/ARIANE 42P 3.4 02:49:06 10° NNE 02:54:12 49° E 02:59:16 10° S
Cosmos 1606 3.3 02:51:12 10° N 02:54:57 57° E 02:58:40 10° SSE
ERS-2 2.2 02:52:05 10° SSE 02:55:44 85° ENE 02:59:26 10° NNW
STARLINK-1287 4.2 02:52:01 10° WSW 02:56:06 54° NNW 03:00:11 10° NE
STARLINK-25 3.3 02:53:37 15° SW 02:56:24 65° SE 02:59:50 10° ENE
STARLINK-1329 4.2 02:52:58 10° NW 02:56:58 59° NNE 03:00:58 10° ESE
STARLINK-1009 4.0 02:54:54 13° SW 02:58:23 52° SE 03:02:25 10° ENE
ATLAS 5 CENTAUR R/B 4.0 02:56:34 10° SE 02:58:30 13° ESE 03:00:29 10° E
Cosmos 2341 Rocket 4.2 02:52:36 10° SSW 02:58:47 60° WNW 03:05:02 10° N
BREEZE-M R/B 2.5 02:55:19 10° WNW 02:58:53 63° NNE 03:01:20 10° E
Cosmos 1892 3.9 02:56:52 13° SW 02:59:35 27° WNW 03:02:51 10° NNW
ARIANE 5 R/B 2.5 02:54:52 10° NNE 02:59:54 83° WNW 03:04:53 10° SSW
STARLINK-1362 4.1 02:57:30 10° NW 03:01:31 62° NNE 03:05:32 10° ESE
STARLINK-1320 3.0 02:59:44 10° WNW 03:02:52 78° NNE 03:05:59 10° ESE
STARLINK-1322 3.0 03:00:05 10° WNW 03:03:13 78° NNE 03:06:20 10° ESE
STARLINK-1015 3.9 02:59:41 12° SW 03:03:21 56° SE 03:07:24 10° ENE
STARLINK-1324 3.0 03:00:24 10° WNW 03:03:32 79° NNE 03:06:39 10° ESE
STARLINK-1294 3.0 03:00:42 10° WNW 03:03:51 79° NNE 03:07:00 10° ESE
STARLINK-1261 3.0 03:01:06 10° WNW 03:04:14 80° NNE 03:07:21 10° ESE
CZ-2C R/B 3.6 03:00:48 10° NNE 03:04:28 48° E 03:08:11 10° S
STARLINK-1325 3.0 03:01:27 10° WNW 03:04:35 80° NNE 03:07:41 10° ESE
STARLINK-1333 3.0 03:01:49 10° WNW 03:04:56 81° NNE 03:08:04 10° ESE
CZ-2D R/B 3.7 03:00:39 10° NNE 03:04:57 80° ESE 03:09:18 10° S
STARLINK-1334 2.9 03:02:06 10° WNW 03:05:13 81° NNE 03:08:21 10° ESE
STARLINK-1326 2.9 03:02:25 10° WNW 03:05:33 82° NNE 03:08:40 10° ESE
STARLINK-1323 2.9 03:02:48 10° WNW 03:05:56 82° NNE 03:09:03 10° ESE
STARLINK-1373 4.0 03:01:59 10° NW 03:06:00 65° NNE 03:10:00 10° ESE
STARLINK-1302 4.4 03:02:03 10° W 03:06:05 49° NNW 03:10:07 10° NE
STARLINK-1349 2.9 03:03:06 10° WNW 03:06:14 83° NNE 03:09:21 10° ESE
Cosmos 1408 Rocket 4.3 03:02:16 10° S 03:06:26 52° E 03:10:38 10° NNE
STARLINK-1336 2.9 03:03:25 10° WNW 03:06:32 83° NNE 03:09:40 10° ESE
IRS-1C 4.4 03:01:36 10° N 03:06:50 57° WNW 03:12:02 10° SSW
STARLINK-1331 2.9 03:03:48 10° WNW 03:06:56 84° NNE 03:10:03 10° ESE
STARLINK-1344 2.9 03:04:06 10° WNW 03:07:14 84° NNE 03:10:21 10° ESE
STARLINK-1343 2.9 03:04:29 10° WNW 03:07:37 85° NE 03:10:45 10° ESE
Cosmos 1959 Rocket 4.5 03:01:32 10° S 03:07:39 81° W 03:13:47 10° N
STARLINK-24 3.5 03:03:58 11° SW 03:07:45 81° SSE 03:11:47 10° ENE
STARLINK-1346 2.9 03:04:45 10° WNW 03:07:55 85° NNE 03:11:04 10° ESE
STARLINK-1016 3.8 03:04:27 11° SW 03:08:18 61° SE 03:12:24 10° ENE
STARLINK-1328 2.9 03:05:12 10° WNW 03:08:21 86° NE 03:11:27 10° ESE
STARLINK-1354 2.9 03:05:30 10° WNW 03:08:38 86° NNE 03:11:45 10° ESE
STARLINK-1347 2.9 03:05:47 10° WNW 03:08:55 87° NNE 03:12:02 10° ESE
Cosmos 1844 3.8 03:03:14 10° NNW 03:09:04 84° WSW 03:14:52 10° SSE
STARLINK-1357 2.9 03:06:13 10° WNW 03:09:21 87° NNE 03:12:28 10° ESE
STARLINK-1335 2.9 03:06:30 10° WNW 03:09:38 88° NNE 03:12:45 10° ESE
STARLINK-1327 2.8 03:06:51 10° WNW 03:09:58 88° NNE 03:13:06 10° ESE
STARLINK-1340 2.8 03:07:08 10° WNW 03:10:16 89° N 03:13:24 10° ESE
STARLINK-1356 2.8 03:07:32 10° WNW 03:10:40 89° NNE 03:13:47 10° ESE
STARLINK-1390 3.9 03:06:39 10° WNW 03:10:41 70° NNE 03:14:44 10° ESE
STARLINK-1345 2.8 03:07:50 10° WNW 03:10:58 90° ESE 03:14:04 10° ESE
STARLINK-1273 4.5 03:07:04 10° W 03:11:05 47° NNW 03:15:05 10° NE
STARLINK-1355 2.8 03:08:12 10° WNW 03:11:19 89° WSW 03:14:26 10° ESE
STARLINK-1321 2.8 03:08:32 10° WNW 03:11:41 89° SSW 03:14:47 10° ESE
STARLINK-1358 2.8 03:08:56 10° WNW 03:12:03 88° SW 03:15:11 10° ESE
STARLINK-1332 2.8 03:09:13 10° WNW 03:12:21 88° SSW 03:15:28 10° ESE
STARLINK-1348 2.8 03:09:33 10° WNW 03:12:41 87° SSW 03:15:48 10° ESE
STARLINK-1330 2.8 03:09:53 10° WNW 03:13:01 87° SSW 03:16:07 10° ESE
STARLINK-1008 3.8 03:09:15 10° SW 03:13:17 66° SE 03:17:24 10° ENE
STARLINK-1363 2.8 03:10:13 10° WNW 03:13:21 86° SSW 03:16:27 10° SE
STARLINK-1337 2.8 03:10:35 10° WNW 03:13:44 86° SSW 03:16:50 10° SE
STARLINK-1342 2.8 03:10:54 10° WNW 03:14:02 85° SSW 03:17:09 10° SE
STARLINK-1364 2.8 03:11:14 10° WNW 03:14:22 85° SSW 03:17:29 10° SE
STARLINK-1376 2.8 03:11:34 10° WNW 03:14:42 84° SW 03:17:49 10° SE
STARLINK-1360 2.8 03:11:55 10° WNW 03:15:03 84° SSW 03:18:11 10° SE
STARLINK-61 4.2 03:11:25 10° W 03:15:14 50° NNW 03:19:05 10° NE
STARLINK-1361 2.8 03:12:16 10° WNW 03:15:24 83° SSW 03:18:31 10° SE
STARLINK-1367 2.8 03:12:32 10° WNW 03:15:42 82° SSW 03:18:51 10° SE
STARLINK-1366 2.8 03:12:55 10° WNW 03:16:03 82° SSW 03:19:09 10° SE
STARLINK-81 3.3 03:12:47 10° WSW 03:16:26 88° SSE 03:20:04 10° ENE
STARLINK-1365 3.8 03:12:38 10° WNW 03:16:43 77° NNE 03:20:47 10° ESE
Cosmos 2322 Rocket 3.3 03:11:57 10° WSW 03:16:59 33° NW 03:22:03 10° NNE
Cosmos 1151 Rocket 3.1 03:13:01 10° N 03:17:25 85° W 03:21:49 10° S
CZ-4B R/B 3.9 03:15:01 10° SE 03:17:36 24° ENE 03:20:14 10° NNE
STARLINK-54 3.3 03:14:35 10° WSW 03:18:10 83° NNW 03:21:48 10° ENE
STARLINK-1014 3.7 03:14:09 10° SW 03:18:15 72° SE 03:22:22 10° ENE
Meteor 2-3 Rocket 4.2 03:12:49 10° S 03:18:19 62° E 03:23:50 10° NNE
SL-8 Rocket 4.2 03:12:19 10° SSW 03:18:29 56° WNW 03:24:39 10° N
Cosmos 1461 3.9 03:14:02 10° NNW 03:18:40 60° NE 03:23:21 10° SE
STARLINK-77 3.3 03:16:03 10° WSW 03:19:41 88° NNW 03:23:19 10° ENE
Resurs 1-4 Rocket 4.0 03:17:48 10° NNW 03:20:58 16° WNW 03:24:08 10° W
Cosmos 2151 3.6 03:17:34 10° SSW 03:21:38 42° WNW 03:25:45 10° N
Lacrosse 5 rocket 2.8 03:18:53 10° S 03:22:19 27° SE 03:25:37 10° ENE
Cosmos 2218 Rocket 4.2 03:16:36 10° SSW 03:22:54 63° WNW 03:29:17 10° N
H-2A R/B 2.2 03:18:38 10° S 03:23:01 63° WSW 03:27:31 10° NNW
STARLINK-1025 3.7 03:19:06 10° SW 03:23:14 77° SE 03:27:24 10° ENE
STARLINK-52 4.0 03:21:00 10° W 03:23:40 24° SW 03:26:18 10° SSE
COBE Rocket 4.5 03:19:29 10° SSW 03:24:16 41° W 03:29:10 10° NNW
Cosmos 1766 Rocket 3.7 03:20:02 10° SSW 03:24:19 59° WNW 03:28:36 10° N
STARLINK-79 3.3 03:20:57 10° WSW 03:24:34 81° NNW 03:28:13 10° ENE
STARLINK-78 3.3 03:22:36 10° WSW 03:26:13 79° NNW 03:29:52 10° ENE
STARLINK-1338 3.6 03:22:33 10° WNW 03:26:34 87° NNE 03:30:34 10° ESE
Cosmos 1408 4.2 03:24:22 10° WSW 03:27:13 21° WNW 03:30:04 10° NNW
Okean 3 Rocket 4.0 03:23:02 10° SSW 03:27:25 48° WNW 03:31:51 10° N
STARLINK-57 3.4 03:24:15 10° WSW 03:27:51 74° NNW 03:31:29 10° ENE
STARLINK-1017 3.7 03:24:02 10° SW 03:28:11 83° SSE 03:32:21 10° ENE
Cosmos 1515 Rocket 3.8 03:24:58 10° N 03:29:21 75° E 03:33:41 10° SSE
STARLINK-49 3.4 03:25:47 10° WSW 03:29:23 75° NNW 03:33:00 10° ENE
Spot 4 Rocket 4.2 03:26:32 10° N 03:31:37 61° WNW 03:36:39 10° SSW
